Home > Weather > Oranjestad > Past weeks

Flag for Aruba Weather for the Past 2 Weeks in Oranjestad, Aruba

Now
82 °F

Passing clouds.


Feels Like: 91 °F
Forecast: 82 / 90 °F
Wind: 16 mph from East

Location: Queen Beatrix Airport - Aruba

Current Time: Apr 29, 2016 at 10:29:23 PM

Latest Report: Apr 29, 2016 at 9:00 PM


Visibility: 5 mi

Pressure: 29.80 "Hg

Humidity: 84%

Dew Point: 77 °F

Location of OranjestadLocation

Historic Weather in Oranjestad — Graph

°F

Oranjestad Temperature Yesterday

Maximum temperature yesterday: 91 °F (at 3:00 PM)
Minimum temperature yesterday: 82 °F (at 12:00 AM)
Average temperature yesterday: 86 °F

High & Low Weather Summary for the Past Weeks

 TemperatureHumidityPressure
High91 °F (Apr 16, 1:00 PM)89% (Apr 17, 2:00 AM)29.89 "Hg (Apr 17, 2:00 AM)
Low81 °F (Apr 14, 9:00 PM)59% (Apr 16, 1:00 PM)29.68 "Hg (Apr 27, 5:00 PM)
Average85 °F76%29.81 "Hg
* Reported Apr 14 9:00 PM — Apr 29 9:00 PM, Oranjestad, Weather by CustomWeather, © 2016

Note: Actual official high and low records may vary slightly from our data, if they occured in-between our weather recording intervals... More about our weather records

Advertising

Oranjestad Weather History for the Previous 24 Hours

Scroll right to see more
 ConditionsComfort  
Time TempWeatherWind HumidityBarometerVisibility
9:00 PM
Fri, Apr 29
82 °FPassing clouds.16 mph84%29.80 "Hg5 mi
8:00 PM84 °FPassing clouds.17 mph79%29.77 "Hg5 mi
7:00 PM84 °FPassing clouds.17 mph84%29.77 "Hg5 mi
6:00 PM86 °FPassing clouds.17 mph79%29.77 "Hg5 mi
5:00 PM90 °FPassing clouds.18 mph67%29.74 "Hg5 mi
4:00 PM90 °FPassing clouds.18 mph67%29.74 "Hg5 mi
2:00 PM91 °FPassing clouds.20 mph63%29.80 "Hg5 mi
1:00 PM91 °FScattered clouds.20 mph67%29.80 "HgN/A
12:00 PM90 °FPassing clouds.18 mph71%29.83 "Hg5 mi
11:00 AM90 °FPassing clouds.18 mph67%29.83 "Hg5 mi
10:00 AM88 °FPassing clouds.22 mph70%29.86 "Hg5 mi
9:00 AM86 °FPassing clouds.20 mph75%29.86 "Hg5 mi
8:00 AM84 °FPassing clouds.17 mph79%29.83 "Hg5 mi
7:00 AM82 °FPassing clouds.14 mph84%29.83 "HgN/A
6:00 AM82 °FPassing clouds.14 mph84%29.80 "Hg5 mi
3:00 AM82 °FPassing clouds.15 mph84%29.80 "Hg5 mi
2:00 AM82 °FPassing clouds.14 mph84%29.83 "Hg5 mi
1:00 AM82 °FPassing clouds.16 mph84%29.86 "HgN/A
12:00 AM82 °FPassing clouds.16 mph84%29.86 "HgN/A
10:00 PM
Thu, Apr 28
84 °FPassing clouds.16 mph79%29.86 "Hg5 mi
Weather by CustomWeather, © 2016

See weather overviewHow to use our weather pages